DateTimeUTC,F1_A11,F1_S11,BsB_S11,BsG_S11,BsR_S11,BbsB_S11,BbsG_S11,BbsR_S11,BaB_A11,BaG_A11,BaR_A11,Tu_S11,T_S11,Uu_S11,U_S11,P_S11,T1_A11
2021-07-02T02:00:00Z,00000200,20000000,,,,,,,-000.16,-000.28,-000.08,18.8,25.7,02.3,01.5,0675.2,31.2
2021-07-02T02:01:00Z,00000200,20000000,,,,,,,-000.35,-000.03,-000.06,18.8,25.7,02.3,01.5,0675.2,31.2
2021-07-02T02:02:00Z,00000200,20000000,,,,,,,0000.22,0000.13,0000.50,18.8,25.8,02.3,01.5,0675.2,31.2
2021-07-02T02:03:00Z,00000200,60000000,,,,,,,-000.18,-000.09,-000.31,18.8,25.8,02.3,01.5,0675.2,31.2
2021-07-02T02:04:00Z,00000200,40000000,0000.34,0000.45,0000.62,0000.14,0000.27,0000.05,0000.13,-000.04,0000.09,18.9,25.5,02.4,01.6,0676.1,31.1
2021-07-02T02:05:00Z,00000200,00000000,0000.58,0000.27,0000.31,-000.12,0000.23,-000.00,0000.01,-000.00,-000.19,18.9,25.4,02.4,01.6,0676.1,31.1
2021-07-02T02:06:00Z,00000200,00000000,0000.31,0000.37,0000.36,0000.07,0000.09,0000.02,0000.27,0000.14,0000.29,18.8,25.4,02.3,01.6,0676.1,31.1
2021-07-02T02:07:00Z,00000200,00000000,0000.79,-000.03,0000.29,0000.34,0000.10,0000.10,-000.00,-000.09,0000.08,18.8,25.3,02.5,01.7,0676.1,31.1
2021-07-02T02:08:00Z,00000200,00000000,0000.35,0000.34,0000.22,-000.31,0000.09,-000.11,0000.12,0000.29,-000.06,18.7,25.3,02.4,01.6,0676.1,31.1
2021-07-02T02:09:00Z,00000200,00000000,0000.84,0000.38,0000.33,0000.28,0000.18,0000.19,0000.20,0000.30,0000.13,18.8,25.3,02.4,01.6,0676.1,31.1
2021-07-02T02:10:00Z,00000200,00000000,0000.55,0000.14,0000.30,-000.09,-000.04,-000.05,-000.12,-000.01,0000.18,18.8,25.4,02.5,01.7,0676.1,31.1
2021-07-02T02:11:00Z,00000200,00000000,0001.21,0000.18,0000.68,-000.15,0000.17,0000.46,-000.03,-000.13,-000.30,18.9,25.4,02.4,01.6,0676.1,31.2
2021-07-02T02:12:00Z,00000200,00000000,0000.70,0000.23,0000.04,0000.08,0000.42,-000.09,0000.15,0000.16,0000.15,18.9,25.4,02.5,01.7,0676.1,31.2
2021-07-02T02:13:00Z,00000200,00000000,0001.10,-000.10,0000.40,-000.08,0000.16,0000.16,0000.10,0000.07,0000.35,19.0,25.5,02.3,01.6,0676.1,31.2
2021-07-02T02:14:00Z,00000200,00000000,0001.12,0000.28,0000.37,0000.00,0000.40,0000.29,-000.24,0000.06,0000.05,19.1,25.5,02.4,01.6,0676.1,31.2
2021-07-02T02:15:00Z,00000200,00000000,0000.60,0000.28,0000.36,0000.07,0000.11,0000.06,0000.29,-000.08,-000.37,19.1,25.5,02.4,01.6,0676.1,31.2
2021-07-02T02:16:00Z,00000200,00000000,0001.13,0000.31,0000.27,-000.29,0000.03,0000.02,-000.14,0000.21,0000.18,19.1,25.5,02.3,01.6,0676.1,31.2
2021-07-02T02:17:00Z,00000200,00000000,0000.78,0000.10,0000.24,0000.07,0000.05,0000.33,0000.21,0000.03,-000.13,19.0,25.5,02.4,01.6,0676.1,31.2
2021-07-02T02:18:00Z,00000200,00000000,0001.06,0000.26,0000.66,0000.18,0000.34,0000.29,-000.22,-000.05,0000.42,19.0,25.5,02.4,01.6,0676.1,31.1
2021-07-02T02:19:00Z,00000200,00000000,0000.39,0000.49,-000.04,0000.05,-000.03,0000.02,0000.45,-000.05,-000.59,18.9,25.4,02.3,01.5,0676.1,31.1
2021-07-02T02:20:00Z,00000200,00000000,0000.15,0000.35,0000.42,0000.42,0000.46,-000.09,-000.36,-000.11,0000.26,18.9,25.4,02.3,01.5,0676.1,31.1
2021-07-02T02:21:00Z,00000200,00000000,0000.79,0000.43,0000.19,-000.26,-000.08,-000.11,0000.24,0000.04,0000.03,18.8,25.3,02.4,01.6,0676.1,31.1
2021-07-02T02:22:00Z,00000200,00000000,0000.34,0000.19,0000.56,-000.39,0000.13,0000.46,-000.13,-000.06,0000.15,18.7,25.3,02.3,01.6,0676.1,31.1
2021-07-02T02:23:00Z,00000200,00000000,0000.89,0000.32,0000.38,0000.01,0000.19,0000.09,0000.12,0000.04,0000.25,18.7,25.3,02.3,01.6,0676.1,31.1
2021-07-02T02:24:00Z,00000200,00000000,0000.81,0000.33,0000.19,0000.28,0000.31,-000.05,0000.19,0000.11,-000.21,18.8,25.3,02.4,01.6,0676.1,31.1
2021-07-02T02:25:00Z,00000200,00000000,0000.64,0000.12,0000.38,0000.05,0000.22,-000.07,-000.14,0000.21,0000.22,18.8,25.3,02.2,01.5,0676.1,31.1
2021-07-02T02:26:00Z,00000200,00000000,0000.35,0000.42,0000.25,0000.17,0000.47,-000.05,0000.19,0000.10,-000.38,18.8,25.4,02.2,01.5,0676.1,31.2
2021-07-02T02:27:00Z,00000200,00000000,0000.34,0000.27,0000.39,-000.14,0000.12,0000.01,-000.04,0000.04,0000.45,18.9,25.4,02.1,01.4,0676.1,31.1
2021-07-02T02:28:00Z,00000200,00000000,0000.79,0000.45,0000.39,-000.38,0000.13,0000.10,0000.14,0000.08,0000.18,19.0,25.4,02.2,01.5,0676.1,31.2
2021-07-02T02:29:00Z,00000200,01000000,0001.09,0000.29,0000.25,0000.17,0000.06,-000.09,-000.03,-000.00,-000.30,19.0,25.5,02.2,01.5,0676.1,31.2
2021-07-02T02:30:00Z,00000200,00000000,0001.00,0000.60,0000.56,0000.79,-000.14,0000.10,0000.28,0000.16,0000.40,19.1,25.5,02.2,01.5,0676.1,31.2
2021-07-02T02:31:00Z,00000200,00000000,0000.83,0000.25,0000.12,-000.05,0000.15,0000.02,-000.31,-000.16,-000.35,19.1,25.5,02.2,01.5,0676.1,31.2
2021-07-02T02:32:00Z,00000200,01000000,0000.89,0000.33,0000.38,0000.67,-000.04,0000.08,0000.14,0000.11,-000.05,19.0,25.5,02.1,01.4,0676.1,31.2
2021-07-02T02:33:00Z,00000200,00000000,0000.30,0000.45,0000.45,-000.19,0000.37,-000.15,-000.24,-000.35,0000.12,19.0,25.4,02.1,01.4,0676.0,31.2
2021-07-02T02:34:00Z,00000200,00000000,0000.66,0000.18,0000.22,-000.10,0000.11,0000.09,0000.12,0000.05,-000.46,18.9,25.4,02.1,01.4,0676.0,31.1
2021-07-02T02:35:00Z,00000200,01000000,0000.63,0000.36,0000.39,0000.13,0000.11,0000.14,0000.15,0000.15,0000.10,18.9,25.4,02.1,01.4,0676.0,31.1
2021-07-02T02:36:00Z,00000200,00000000,0000.28,0000.29,0000.71,-000.26,0000.34,0000.07,0000.16,0000.06,0000.37,18.8,25.3,02.1,01.4,0676.0,31.1
2021-07-02T02:37:00Z,00000200,00000000,0000.76,0000.43,0000.41,0000.43,0000.19,-000.01,0000.39,-000.19,0000.20,18.7,25.3,02.1,01.4,0676.0,31.1
2021-07-02T02:38:00Z,00000200,00000000,0000.38,0000.24,0000.27,-000.06,0000.18,0000.14,-000.32,0000.17,-000.23,18.7,25.3,02.1,01.4,0676.0,31.1
2021-07-02T02:39:00Z,00000200,00000000,0001.00,0000.23,0000.21,-000.10,0000.33,0000.07,0000.06,0000.41,0000.68,18.8,25.3,02.1,01.4,0676.0,31.1
2021-07-02T02:40:00Z,00000200,00000000,0000.54,0000.43,0000.27,0000.01,0000.13,0000.02,0000.29,0000.15,-000.29,18.8,25.3,02.1,01.4,0676.0,31.1
2021-07-02T02:41:00Z,00000200,00000000,0001.17,0000.64,0000.04,0000.52,-000.06,-000.19,0000.02,0000.05,0000.02,18.8,25.3,02.1,01.4,0676.0,31.1
2021-07-02T02:42:00Z,00000200,00000000,0000.35,0000.05,0000.32,-000.28,0000.39,-000.04,0000.24,0000.15,0000.00,18.9,25.4,02.1,01.4,0676.0,31.1
2021-07-02T02:43:00Z,00000200,00000000,0000.58,0000.37,0000.27,0000.49,0000.07,0000.09,-000.13,0000.16,-000.09,18.9,25.4,02.1,01.4,0676.0,31.2
2021-07-02T02:44:00Z,00000200,00000000,0000.16,0000.55,0000.33,0000.04,0000.13,0000.26,0000.05,-000.14,0000.08,19.0,25.4,02.0,01.4,0676.0,31.2
2021-07-02T02:45:00Z,00000200,00000000,0000.77,0000.05,0000.28,0000.41,0000.25,0000.15,-000.06,-000.17,-000.01,19.0,25.5,02.0,01.4,0676.1,31.2
2021-07-02T02:46:00Z,00000200,00000000,0000.93,0000.49,0000.68,-000.34,-000.12,-000.03,0000.03,0000.15,-000.03,19.0,25.5,02.1,01.4,0676.0,31.2
2021-07-02T02:47:00Z,00000200,00000000,0000.97,0000.23,0000.38,0000.38,-000.14,0000.19,-000.03,0000.11,0000.05,19.0,25.4,02.0,01.3,0676.0,31.2
2021-07-02T02:48:00Z,00000200,00000000,0000.70,0000.35,0000.27,-000.25,0000.39,0000.05,0000.21,-000.15,0000.10,18.9,25.4,02.0,01.4,0676.0,31.1
2021-07-02T02:49:00Z,00000200,00000000,-000.01,0000.34,0000.29,-000.02,0000.44,0000.15,0000.13,0000.42,-000.02,18.9,25.4,02.0,01.4,0676.0,31.1
2021-07-02T02:50:00Z,00000200,00000000,0000.12,0000.39,0000.17,0000.43,0000.50,0000.11,-000.00,-000.10,-000.05,18.8,25.3,02.1,01.4,0676.0,31.1
2021-07-02T02:51:00Z,00000200,00000000,0001.41,0000.77,0000.37,0000.04,0000.22,0000.23,0000.12,0000.19,0000.30,18.7,25.3,02.0,01.3,0676.0,31.1
2021-07-02T02:52:00Z,00000200,01000000,0000.51,0000.05,0000.36,0000.14,0000.08,0000.28,-000.27,-000.27,-000.12,18.7,25.2,01.9,01.3,0676.0,31.1
2021-07-02T02:53:00Z,00000200,00000000,0000.23,0000.28,0000.47,0000.23,0000.28,0000.38,0000.16,-000.01,0000.20,18.7,25.2,02.0,01.3,0676.0,31.1
2021-07-02T02:54:00Z,00000200,01000000,0000.41,0000.15,-000.02,0000.36,0000.12,0000.25,0000.28,0000.09,-000.09,18.7,25.2,02.0,01.3,0676.0,31.1
2021-07-02T02:55:00Z,00000200,01000000,0000.50,0000.21,0000.11,-000.06,0000.08,-000.09,-000.11,0000.39,-000.06,18.7,25.2,02.0,01.3,0676.0,31.1
2021-07-02T02:56:00Z,00000200,01000000,0000.72,0000.48,0000.48,0000.02,0000.08,0000.19,0000.16,-000.13,0000.53,18.8,25.3,01.8,01.2,0676.0,31.1
2021-07-02T02:57:00Z,00000200,40000000,,,,,,,0000.24,0000.08,-000.13,18.9,25.3,01.6,01.1,0676.0,31.2
2021-07-02T02:58:00Z,00000200,60000000,,,,,,,0000.04,-000.30,-000.02,18.7,25.5,02.0,01.3,0675.0,31.2
2021-07-02T02:59:00Z,00000200,20000000,,,,,,,-000.11,0000.33,0000.02,18.7,25.6,02.0,01.3,0675.0,31.2
